Tracking 19628 objects as of 27-May-2019
HD Live streaming from Space Station
objects crossing your sky now
Watch Starlink satellites crossing your sky!

UWE-3

Track UWE-3 now!
10-day predictions
UWE-3 is classified as:


NORAD ID: 39446
Int'l Code: 2013-066AG
Perigee: 591.7 km
Apogee: 691.5 km
Inclination: 97.6 °
Period: 97.4 minutes
Semi major axis: 7012 km
RCS: Unknown
Launch date: November 21, 2013
Source: Germany (GER)
Launch site: Orenburg, Russia (OREN)

Uplink (MHz):
Downlink (MHz): 435.000/436.395/437.385
Beacon (MHz):
Mode: 9600bps GMSK CW
Call sign: DP0UWG
Status: Active

aabbcc
Your satellite tracking list
Your tracking list is empty




NASA's NSSDC Master Catalog

Two Line Element Set (TLE):
1 39446U 13066AG  19146.81065648  .00000130  00000-0  23833-4 0  9998
2 39446  97.5814 153.5945 0071213 133.8292 226.8837 14.78377323295889
Source of the keplerian elements: Caltech